This is the latest recevied weather packets stored in our database for station/object WV6L-13. If no packets are shown the sender has not sent any weather packets the latest 10 day(s).
| Time | Temp. | Humidity | Pressure | Rain* | Wind** | Luminosity | Snow |
|---|---|---|---|---|---|---|---|
| 1777632896 | 11.67° C | 34% | 924.2 hPa | - | - | - | - |
| 1777632595 | 12.22° C | 34% | 924.2 hPa | - | - | - | - |
| 1777631995 | 12.22° C | 34% | 924.2 hPa | - | - | - | - |
| 1777631695 | 11.67° C | 33% | 924.1 hPa | - | - | - | - |
| 1777631395 | 11.67° C | 33% | 924.1 hPa | - | - | - | - |
| 1777631095 | 12.22° C | 32% | 923.9 hPa | - | - | - | - |
| 1777630795 | 11.67° C | 33% | 923.9 hPa | - | - | - | - |
| 1777630495 | 12.22° C | 33% | 923.7 hPa | - | - | - | - |
| 1777630195 | 12.78° C | 31% | 923.7 hPa | - | - | - | - |
| 1777629895 | 12.78° C | 31% | 923.8 hPa | - | - | - | - |
| 1777629595 | 13.33° C | 31% | 923.7 hPa | - | - | - | - |
| 1777629295 | 12.78° C | 31% | 923.8 hPa | - | - | - | - |
| 1777628994 | 12.78° C | 31% | 923.8 hPa | - | - | - | - |
| 1777628695 | 12.22° C | 32% | 923.7 hPa | - | - | - | - |
| 1777628395 | 12.22° C | 31% | 923.9 hPa | - | - | - | - |
| 1777628095 | 12.78° C | 31% | 923.8 hPa | - | - | - | - |
| 1777627795 | 13.33° C | 30% | 923.7 hPa | - | - | - | - |
| 1777627495 | 13.89° C | 29% | 923.8 hPa | - | - | - | - |
| 1777627195 | 14.44° C | 29% | 923.9 hPa | - | - | - | - |
| 1777626895 | 14.44° C | 29% | 923.8 hPa | - | - | - | - |
| 1777626595 | 15° C | 28% | 923.9 hPa | - | - | - | - |
| 1777626295 | 14.44° C | 30% | 923.7 hPa | - | - | - | - |
| 1777625995 | 15° C | 29% | 923.4 hPa | - | - | - | - |
| 1777625695 | 14.44° C | 29% | 923.4 hPa | - | - | - | - |
| 1777625396 | 14.44° C | 30% | 923.7 hPa | - | - | - | - |
* Rain since midnight (hover to see other rain measurements)
** Current wind speed in m/s (hover to see current wind gust speed)